Actual water levels and discharges of Vltava river

Vraňany

Date and time (UTC) H (cm) Q (m3/s)
17. 9. 2019 09:20 1 46
17. 9. 2019 09:00 3 47
17. 9. 2019 08:00 7 51
17. 9. 2019 07:00 15 57
17. 9. 2019 06:00 12 55
17. 9. 2019 05:00 10 53
17. 9. 2019 04:00 14 56
17. 9. 2019 03:00 14 56
17. 9. 2019 02:00 14 56
17. 9. 2019 01:00 20 62
17. 9. 2019 00:00 23 65
16. 9. 2019 23:00 17 59
16. 9. 2019 22:00 18 60
16. 9. 2019 21:00 15 57

H - vodni stav, Q - discharge

Praha-Chuchle

Date and time (UTC) H (cm) Q (m3/s)
17. 9. 2019 09:20 46 54
17. 9. 2019 09:00 46 54
17. 9. 2019 08:00 46 54
17. 9. 2019 07:00 46 54
17. 9. 2019 06:00 46 54
17. 9. 2019 05:00 46 54
17. 9. 2019 04:00 47 58
17. 9. 2019 03:00 47 58
17. 9. 2019 02:00 47 58
17. 9. 2019 01:00 47 58
17. 9. 2019 00:00 47 58
16. 9. 2019 23:00 47 58
16. 9. 2019 22:00 46 54
16. 9. 2019 21:00 46 54

H - vodni stav, Q - discharge
more information

VD Vrané nad Vltavou

Date and time (UTC) H (m n. m.) Q (m3/s)
17. 9. 2019 09:20 199 40
17. 9. 2019 09:00 199 40
17. 9. 2019 08:00 199 40
17. 9. 2019 07:00 - 40
17. 9. 2019 06:00 200 40
17. 9. 2019 05:00 200 40
17. 9. 2019 04:00 200 40
17. 9. 2019 03:00 200 40
17. 9. 2019 02:00 200 40
17. 9. 2019 01:00 200 40
17. 9. 2019 00:00 200 40
16. 9. 2019 23:00 200 40
16. 9. 2019 22:00 200 40
16. 9. 2019 21:00 200 40

H - water level, Q - outflow

VD Štěchovice

Date and time (UTC) H (m n. m.) Q (m3/s)
17. 9. 2019 09:20 218 74
17. 9. 2019 09:00 218 59
17. 9. 2019 08:00 218 23
17. 9. 2019 06:00 217 0
17. 9. 2019 05:00 217 0
17. 9. 2019 04:00 217 0
17. 9. 2019 03:00 217 0
17. 9. 2019 02:00 217 0
17. 9. 2019 01:00 217 0
17. 9. 2019 00:00 217 15
16. 9. 2019 23:00 217 25
16. 9. 2019 22:00 218 25
16. 9. 2019 21:00 218 50
16. 9. 2019 20:00 218 51

H - water level, Q - outflow

VD Slapy

Date and time (UTC) H (m n. m.) Q (m3/s)
17. 9. 2019 09:20 270 171
17. 9. 2019 09:00 270 141
17. 9. 2019 08:00 270 148
17. 9. 2019 07:00 - 0
17. 9. 2019 06:00 270 0
17. 9. 2019 05:00 270 0
17. 9. 2019 04:00 270 0
17. 9. 2019 03:00 270 0
17. 9. 2019 02:00 270 0
17. 9. 2019 01:00 270 0
17. 9. 2019 00:00 270 0
16. 9. 2019 23:00 270 0
16. 9. 2019 22:00 270 0
16. 9. 2019 21:00 270 63

H - water level, Q - outflow

VD Kamýk

Date and time (UTC) H (m n. m.) Q (m3/s)
17. 9. 2019 09:20 283 -
17. 9. 2019 09:00 283 -
17. 9. 2019 08:00 283 -
17. 9. 2019 07:00 282 -
17. 9. 2019 06:00 282 -
17. 9. 2019 05:00 282 -
17. 9. 2019 04:00 283 -
17. 9. 2019 03:00 283 -
17. 9. 2019 02:00 282 -
17. 9. 2019 01:00 282 -
17. 9. 2019 00:00 282 -
16. 9. 2019 23:00 282 -
16. 9. 2019 22:00 282 -
16. 9. 2019 21:00 282 -

H - water level, Q - outflow

VD Orlík

Date and time (UTC) H (m n. m.) Q (m3/s)
17. 9. 2019 09:20 344 291
17. 9. 2019 09:00 344 262
17. 9. 2019 08:00 344 218
17. 9. 2019 07:00 - 193
17. 9. 2019 06:00 345 191
17. 9. 2019 05:00 345 0
17. 9. 2019 04:00 345 0
17. 9. 2019 03:00 345 0
17. 9. 2019 02:00 345 0
17. 9. 2019 01:00 345 0
17. 9. 2019 00:00 345 0
16. 9. 2019 23:00 345 0
16. 9. 2019 22:00 345 0
16. 9. 2019 21:00 345 0

H - water level, Q - outflow

VD Kořensko

Date and time (UTC) H (m n. m.) Q (m3/s)
17. 9. 2019 09:20 352 14
17. 9. 2019 09:00 352 14
17. 9. 2019 08:00 352 14
17. 9. 2019 07:00 352 14
17. 9. 2019 06:00 352 14
17. 9. 2019 05:00 352 14
17. 9. 2019 04:00 352 14
17. 9. 2019 03:00 352 14
17. 9. 2019 02:00 352 14
17. 9. 2019 01:00 352 14
17. 9. 2019 00:00 352 16
16. 9. 2019 23:00 352 17
16. 9. 2019 22:00 352 17
16. 9. 2019 21:00 353 18

H - water level, Q - outflow

VD Hněvkovice I - přehrada

Date and time (UTC) H (m n. m.) Q (m3/s)
- - -

H - water level, Q - outflow

České Budějovice

Date and time (UTC) H (cm) Q (m3/s)
17. 9. 2019 09:10 99 10
17. 9. 2019 09:00 99 10
17. 9. 2019 08:00 101 10
17. 9. 2019 07:00 102 10
17. 9. 2019 06:00 101 10
17. 9. 2019 05:00 101 10
17. 9. 2019 04:00 102 11
17. 9. 2019 03:00 102 11
17. 9. 2019 02:00 101 10
17. 9. 2019 01:00 101 12
17. 9. 2019 00:00 102 13
16. 9. 2019 23:00 102 14
16. 9. 2019 22:00 102 13
16. 9. 2019 21:00 102 14

H - vodni stav, Q - discharge
more information
Source data
Labe Basin Vltava Basin ČHMÚ